QPF
0.00 0.00 0.00 0.00 0.00 0.00 0.01 0.01 0.01 0.00 0.01 0.01 0.01 0.01 0.01 0.01 0.00 0.00 0.00 0.00 0.00 0.00 0.00 0.00 0.00 0.00 0.00 0.00 0.00 0.00 0.00 0.00 0.00 0.00 0.00 0.00 0.00 0.01 0.04 0.03 0.03 0.04 0.06 0.05
0.01 0.00 0.00 0.00 0.00 0.00 0.00 0.00 0.00 0.00 0.00 0.00 0.00 0.00 0.00 0.00 0.00 0.00 0.00 0.00 0.00 0.00 0.00 0.00 0.00 0.00 0.00 0.00 0.00 0.00 0.00 0.00 0.00 0.00 0.00 0.00 0.00 0.00 0.02 0.03 0.04 0.04 0.04 0.06
0.01 0.01 0.01 0.00 0.00 0.00 0.00 0.00 0.00 0.00 0.00 0.00 0.00 0.00 0.00 0.00 0.00 0.00 0.00 0.00 0.00 0.00 0.00 0.00 0.00 0.00 0.00 0.00 0.00 0.00 0.01 0.01 0.01 0.01 0.00 0.00 0.01 0.01 0.01 0.02 0.03 0.04 0.04 0.04
0.01 0.01 0.01 0.00 0.00 0.00 0.00 0.00 0.00 0.00 0.00 0.00 0.00 0.00 0.00 0.00 0.00 0.00 0.00 0.00 0.00 0.00 0.00 0.01 0.01 0.01 0.01 0.01 0.01 0.01 0.01 0.01 0.00 0.01 0.01 0.01 0.01 0.01 0.02 0.02 0.02 0.03 0.04 0.04
0.02 0.01 0.00 0.00 0.00 0.00 0.00 0.00 0.00 0.00 0.00 0.00 0.00 0.00 0.00 0.00 0.00 0.00 0.00 0.01 0.01 0.01 0.01 0.01 0.01 0.01 0.01 0.01 0.01 0.02 0.02 0.02 0.01 0.01 0.01 0.01 0.01 0.01 0.02 0.03 0.02 0.02 0.03 0.03
0.03 0.02 0.00 0.00 0.00 0.00 0.00 0.00 0.00 0.00 0.00 0.00 0.00 0.00 0.00 0.00 0.00 0.00 0.00 0.00 0.01 0.01 0.01 0.01 0.01 0.01 0.01 0.01 0.01 0.01 0.02 0.02 0.02 0.02 0.02 0.01 0.01 0.01 0.01 0.02 0.03 0.02 0.02 0.02
0.02 0.02 0.01 0.00 0.00 0.00 0.00 0.00 0.00 0.00 0.00 0.00 0.00 0.00 0.00 0.00 0.00 0.00 0.00 0.00 0.00 0.01 0.01 0.01 0.01 0.01 0.01 0.01 0.01 0.01 0.02 0.02 0.02 0.02 0.02 0.01 0.01 0.03 0.02 0.01 0.02 0.02 0.02 0.02
0.02 0.02 0.01 0.00 0.00 0.00 0.00 0.00 0.00 0.00 0.00 0.00 0.00 0.00 0.00 0.00 0.00 0.00 0.00 0.00 0.00 0.00 0.01 0.01 0.01 0.01 0.01 0.01 0.01 0.01 0.02 0.02 0.02 0.02 0.02 0.02 0.01 0.03 0.04 0.02 0.02 0.02 0.02 0.03
0.01 0.02 0.02 0.01 0.01 0.01 0.01 0.01 0.01 0.01 0.00 0.00 0.00 0.00 0.00 0.00 0.00 0.00 0.00 0.00 0.00 0.01 0.01 0.01 0.01 0.01 0.02 0.01 0.01 0.01 0.02 0.03 0.03 0.02 0.02 0.02 0.02 0.03 0.05 0.05 0.03 0.03 0.02 0.03
0.01 0.01 0.01 0.01 0.01 0.01 0.00 0.00 0.00 0.00 0.00 0.00 0.00 0.00 0.00 0.00 0.00 0.00 0.00 0.00 0.00 0.00 0.00 0.01 0.01 0.01 0.02 0.01 0.01 0.01 0.02 0.02 0.03 0.03 0.03 0.02 0.02 0.02 0.03 0.05 0.06 0.04 0.03 0.03
0.01 0.01 0.00 0.00 0.00 0.00 0.00 0.00 0.00 0.00 0.00 0.00 0.00 0.00 0.00 0.00 0.00 0.00 0.00 0.00 0.00 0.00 0.01 0.01 0.01 0.01 0.01 0.02 0.02 0.02 0.02 0.02 0.03 0.04 0.04 0.03 0.03 0.03 0.03 0.04 0.06 0.06 0.05 0.04
0.01 0.00 0.00 0.00 0.01 0.01 0.01 0.01 0.00 0.00 0.00 0.00 0.00 0.00 0.00 0.00 0.00 0.00 0.00 0.00 0.00 0.00 0.00 0.01 0.01 0.01 0.02 0.02 0.03 0.03 0.03 0.03 0.03 0.04 0.04 0.05 0.03 0.03 0.03 0.04 0.05 0.06 0.06 0.05
0.01 0.01 0.01 0.01 0.00 0.00 0.00 0.00 0.00 0.00 0.00 0.00 0.00 0.00 0.00 0.00 0.00 0.00 0.00 0.00 0.00 0.00 0.00 0.01 0.01 0.01 0.01 0.02 0.03 0.03 0.03 0.03 0.03 0.03 0.04 0.05 0.04 0.03 0.03 0.04 0.05 0.06 0.06 0.06
0.01 0.01 0.00 0.00 0.00 0.00 0.00 0.00 0.00 0.00 0.00 0.00 0.01 0.00 0.00 0.00 0.00 0.00 0.00 0.00 0.00 0.00 0.00 0.00 0.01 0.01 0.01 0.02 0.02 0.02 0.02 0.02 0.03 0.03 0.04 0.05 0.05 0.05 0.05 0.05 0.06 0.06 0.06 0.07
0.00 0.00 0.01 0.00 0.00 0.01 0.01 0.00 0.00 0.01 0.01 0.01 0.00 0.00 0.00 0.00 0.00 0.00 0.00 0.00 0.00 0.00 0.00 0.00 0.00 0.01 0.01 0.01 0.02 0.02 0.02 0.02 0.03 0.03 0.03 0.04 0.05 0.06 0.06 0.06 0.06 0.06 0.05 0.06
0.01 0.01 0.01 0.01 0.01 0.01 0.01 0.01 0.00 0.01 0.00 0.00 0.00 0.00 0.00 0.00 0.00 0.00 0.00 0.00 0.00 0.00 0.00 0.00 0.00 0.01 0.01 0.01 0.01 0.02 0.02 0.02 0.03 0.03 0.03 0.03 0.04 0.05 0.06 0.06 0.06 0.05 0.06 0.06
0.01 0.01 0.01 0.01 0.01 0.01 0.01 0.01 0.01 0.01 0.00 0.00 0.00 0.00 0.00 0.00 0.00 0.00 0.00 0.00 0.00 0.00 0.00 0.00 0.00 0.00 0.01 0.01 0.01 0.01 0.01 0.02 0.02 0.02 0.02 0.03 0.04 0.04 0.05 0.05 0.05 0.05 0.06 0.07
0.01 0.01 0.01 0.01 0.01 0.01 0.01 0.01 0.01 0.00 0.00 0.00 0.00 0.00 0.00 0.00 0.00 0.00 0.00 0.00 0.00 0.00 0.00 0.00 0.01 0.01 0.01 0.01 0.01 0.01 0.01 0.02 0.02 0.02 0.02 0.03 0.04 0.04 0.04 0.04 0.04 0.04 0.05 0.06
0.01 0.01 0.01 0.01 0.01 0.01 0.01 0.01 0.00 0.00 0.00 0.00 0.00 0.00 0.00 0.00 0.00 0.00 0.00 0.00 0.00 0.00 0.00 0.00 0.01 0.01 0.01 0.01 0.01 0.01 0.01 0.01 0.01 0.02 0.02 0.02 0.02 0.03 0.03 0.03 0.03 0.03 0.04 0.04
0.01 0.01 0.01 0.01 0.01 0.01 0.00 0.00 0.00 0.00 0.00 0.00 0.00 0.00 0.00 0.00 0.00 0.00 0.00 0.01 0.01 0.01 0.01 0.01 0.01 0.01 0.01 0.01 0.01 0.01 0.01 0.01 0.01 0.01 0.01 0.02 0.02 0.02 0.02 0.02 0.03 0.03 0.03 0.04
0.01 0.01 0.01 0.00 0.00 0.00 0.00 0.00 0.00 0.00 0.00 0.00 0.00 0.00 0.00 0.00 0.00 0.00 0.01 0.01 0.01 0.01 0.02 0.02 0.01 0.01 0.01 0.02 0.02 0.01 0.01 0.01 0.01 0.01 0.01 0.01 0.01 0.01 0.02 0.02 0.02 0.02 0.02 0.03
0.00 0.00 0.00 0.00 0.00 0.00 0.00 0.00 0.00 0.00 0.00 0.00 0.00 0.00 0.00 0.00 0.00 0.00 0.01 0.01 0.01 0.01 0.02 0.02 0.01 0.02 0.03 0.03 0.02 0.01 0.01 0.01 0.01 0.01 0.01 0.01 0.01 0.01 0.01 0.01 0.01 0.02 0.02 0.02
0.00 0.00 0.00 0.00 0.00 0.00 0.00 0.00 0.00 0.00 0.00 0.00 0.00 0.00 0.00 0.00 0.00 0.01 0.01 0.01 0.01 0.02 0.02 0.01 0.02 0.03 0.03 0.03 0.01 0.01 0.01 0.01 0.01 0.01 0.01 0.01 0.01 0.01 0.01 0.01 0.01 0.01 0.01 0.02
0.00 0.00 0.00 0.00 0.00 0.00 0.00 0.00 0.00 0.00 0.00 0.00 0.00 0.00 0.00 0.00 0.00 0.01 0.01 0.01 0.01 0.02 0.01 0.01 0.02 0.02 0.02 0.01 0.01 0.01 0.01 0.01 0.01 0.01 0.01 0.01 0.01 0.01 0.01 0.01 0.01 0.01 0.01 0.01
0.00 0.00 0.00 0.00 0.00 0.00 0.00 0.00 0.00 0.00 0.00 0.00 0.00 0.00 0.01 0.01 0.01 0.01 0.01 0.02 0.02 0.01 0.01 0.01 0.01 0.01 0.01 0.01 0.01 0.01 0.01 0.01 0.01 0.01 0.01 0.01 0.01 0.01 0.01 0.01 0.01 0.01 0.01 0.01
0.00 0.00 0.00 0.00 0.00 0.01 0.01 0.01 0.01 0.00 0.00 0.01 0.01 0.01 0.01 0.01 0.02 0.02 0.02 0.02 0.01 0.01 0.01 0.01 0.01 0.00 0.00 0.00 0.01 0.01 0.01 0.01 0.01 0.01 0.01 0.01 0.01 0.01 0.01 0.01 0.01 0.01 0.01 0.01
0.00 0.00 0.00 0.00 0.00 0.01 0.01 0.01 0.01 0.01 0.01 0.01 0.01 0.01 0.02 0.02 0.02 0.02 0.02 0.01 0.01 0.01 0.01 0.00 0.00 0.00 0.00 0.01 0.01 0.01 0.01 0.01 0.01 0.01 0.01 0.01 0.01 0.01 0.01 0.01 0.01 0.01 0.01 0.01
MSLP
1017.01 1017.41 1017.69 1017.80 1017.67 1017.28 1016.63 1015.75 1014.71 1013.60 1012.52 1011.59 1010.90 1010.48 1010.38 1010.56 1010.97 1011.56 1012.23 1012.92 1013.57 1014.15 1014.66 1015.11 1015.54 1015.97 1016.42 1016.91 1017.42 1017.93 1018.42 1018.86 1019.23 1019.52 1019.76 1019.95 1020.13 1020.33 1020.57 1020.86 1021.18 1021.52 1021.85 1022.13
1017.05 1017.17 1017.11 1016.86 1016.39 1015.71 1014.84 1013.86 1012.83 1011.84 1010.99 1010.33 1009.94 1009.83 1009.99 1010.38 1010.93 1011.59 1012.28 1012.95 1013.55 1014.09 1014.55 1014.98 1015.38 1015.80 1016.24 1016.70 1017.17 1017.63 1018.05 1018.42 1018.71 1018.92 1019.09 1019.22 1019.36 1019.52 1019.73 1019.99 1020.29 1020.61 1020.91 1021.16
1016.98 1016.80 1016.41 1015.82 1015.04 1014.11 1013.09 1012.07 1011.11 1010.30 1009.69 1009.35 1009.28 1009.48 1009.91 1010.50 1011.20 1011.93 1012.63 1013.27 1013.82 1014.29 1014.70 1015.07 1015.43 1015.80 1016.20 1016.61 1017.02 1017.41 1017.75 1018.03 1018.24 1018.39 1018.49 1018.58 1018.68 1018.82 1019.01 1019.25 1019.52 1019.81 1020.07 1020.28
1016.69 1016.23 1015.56 1014.69 1013.68 1012.60 1011.52 1010.53 1009.71 1009.12 1008.81 1008.79 1009.05 1009.54 1010.22 1010.99 1011.81 1012.59 1013.29 1013.89 1014.39 1014.79 1015.12 1015.42 1015.71 1016.02 1016.34 1016.68 1017.01 1017.31 1017.56 1017.75 1017.89 1017.98 1018.03 1018.09 1018.18 1018.30 1018.47 1018.69 1018.93 1019.17 1019.37 1019.53
1016.10 1015.43 1014.55 1013.51 1012.38 1011.25 1010.21 1009.35 1008.73 1008.41 1008.40 1008.69 1009.25 1010.01 1010.89 1011.82 1012.71 1013.52 1014.21 1014.76 1015.18 1015.51 1015.77 1015.99 1016.21 1016.44 1016.68 1016.93 1017.17 1017.38 1017.54 1017.65 1017.72 1017.75 1017.78 1017.81 1017.88 1017.99 1018.15 1018.34 1018.53 1018.71 1018.84 1018.91
1015.19 1014.38 1013.40 1012.30 1011.17 1010.11 1009.21 1008.56 1008.19 1008.16 1008.44 1009.02 1009.83 1010.80 1011.83 1012.85 1013.79 1014.59 1015.25 1015.75 1016.11 1016.38 1016.57 1016.73 1016.89 1017.05 1017.21 1017.38 1017.53 1017.64 1017.72 1017.76 1017.76 1017.75 1017.74 1017.76 1017.81 1017.91 1018.03 1018.18 1018.31 1018.41 1018.46 1018.42
1014.01 1013.15 1012.16 1011.11 1010.10 1009.21 1008.54 1008.14 1008.05 1008.30 1008.85 1009.66 1010.66 1011.76 1012.88 1013.94 1014.88 1015.67 1016.29 1016.74 1017.06 1017.29 1017.44 1017.57 1017.69 1017.80 1017.91 1018.00 1018.07 1018.11 1018.11 1018.08 1018.02 1017.96 1017.92 1017.91 1017.94 1018.00 1018.09 1018.17 1018.23 1018.24 1018.18 1018.04
1012.66 1011.83 1010.93 1010.03 1009.22 1008.58 1008.17 1008.05 1008.24 1008.73 1009.49 1010.46 1011.58 1012.75 1013.89 1014.94 1015.85 1016.60 1017.19 1017.62 1017.93 1018.15 1018.31 1018.44 1018.55 1018.64 1018.71 1018.76 1018.77 1018.74 1018.67 1018.57 1018.46 1018.35 1018.27 1018.22 1018.20 1018.22 1018.25 1018.26 1018.24 1018.15 1017.98 1017.72
1011.27 1010.55 1009.82 1009.14 1008.58 1008.21 1008.09 1008.23 1008.66 1009.35 1010.26 1011.32 1012.47 1013.64 1014.75 1015.75 1016.62 1017.33 1017.90 1018.33 1018.66 1018.91 1019.11 1019.27 1019.41 1019.51 1019.58 1019.60 1019.56 1019.48 1019.35 1019.18 1019.01 1018.85 1018.71 1018.61 1018.54 1018.50 1018.45 1018.38 1018.26 1018.07 1017.80 1017.45
1010.01 1009.45 1008.93 1008.50 1008.21 1008.13 1008.27 1008.65 1009.27 1010.09 1011.07 1012.15 1013.28 1014.39 1015.43 1016.37 1017.18 1017.85 1018.41 1018.87 1019.24 1019.55 1019.82 1020.05 1020.23 1020.36 1020.44 1020.44 1020.37 1020.24 1020.05 1019.83 1019.60 1019.38 1019.18 1019.02 1018.89 1018.77 1018.64 1018.49 1018.28 1018.00 1017.65 1017.22
1009.02 1008.65 1008.36 1008.19 1008.17 1008.34 1008.70 1009.27 1010.01 1010.90 1011.90 1012.95 1014.01 1015.03 1015.98 1016.84 1017.59 1018.24 1018.81 1019.30 1019.73 1020.12 1020.46 1020.75 1020.99 1021.16 1021.24 1021.23 1021.14 1020.96 1020.72 1020.45 1020.16 1019.88 1019.62 1019.40 1019.20 1019.01 1018.81 1018.57 1018.28 1017.93 1017.51 1017.04
1008.42 1008.25 1008.18 1008.24 1008.46 1008.84 1009.38 1010.07 1010.89 1011.81 1012.78 1013.76 1014.73 1015.65 1016.51 1017.28 1017.98 1018.62 1019.19 1019.72 1020.21 1020.66 1021.06 1021.41 1021.68 1021.86 1021.95 1021.92 1021.79 1021.58 1021.29 1020.97 1020.63 1020.31 1020.00 1019.72 1019.46 1019.21 1018.94 1018.64 1018.29 1017.88 1017.42 1016.92
1008.27 1008.28 1008.41 1008.67 1009.07 1009.62 1010.29 1011.06 1011.92 1012.82 1013.75 1014.66 1015.53 1016.36 1017.12 1017.83 1018.49 1019.10 1019.68 1020.23 1020.75 1021.23 1021.66 1022.03 1022.30 1022.47 1022.53 1022.47 1022.31 1022.05 1021.73 1021.38 1021.01 1020.65 1020.31 1019.99 1019.69 1019.39 1019.07 1018.72 1018.32 1017.87 1017.39 1016.88
1008.57 1008.74 1009.03 1009.44 1009.99 1010.65 1011.40 1012.23 1013.09 1013.98 1014.85 1015.69 1016.49 1017.23 1017.93 1018.58 1019.20 1019.79 1020.35 1020.89 1021.40 1021.87 1022.29 1022.62 1022.85 1022.98 1022.99 1022.88 1022.67 1022.39 1022.04 1021.67 1021.29 1020.92 1020.56 1020.23 1019.91 1019.58 1019.23 1018.84 1018.41 1017.93 1017.43 1016.91
1009.31 1009.59 1009.99 1010.52 1011.16 1011.90 1012.70 1013.55 1014.42 1015.28 1016.11 1016.90 1017.64 1018.32 1018.96 1019.57 1020.14 1020.68 1021.21 1021.71 1022.17 1022.58 1022.92 1023.17 1023.33 1023.38 1023.32 1023.15 1022.90 1022.59 1022.23 1021.86 1021.49 1021.13 1020.79 1020.46 1020.13 1019.78 1019.41 1019.00 1018.54 1018.05 1017.52 1016.99
1010.42 1010.78 1011.26 1011.85 1012.54 1013.32 1014.15 1015.01 1015.87 1016.71 1017.51 1018.26 1018.95 1019.60 1020.19 1020.74 1021.26 1021.75 1022.20 1022.62 1022.99 1023.29 1023.52 1023.67 1023.72 1023.67 1023.53 1023.30 1023.01 1022.68 1022.33 1021.97 1021.63 1021.30 1020.98 1020.67 1020.35 1020.00 1019.62 1019.19 1018.71 1018.19 1017.64 1017.10
1011.87 1012.27 1012.77 1013.39 1014.09 1014.88 1015.71 1016.56 1017.40 1018.22 1018.99 1019.71 1020.38 1020.98 1021.53 1022.03 1022.48 1022.88 1023.24 1023.55 1023.79 1023.97 1024.06 1024.07 1024.00 1023.85 1023.63 1023.35 1023.03 1022.70 1022.36 1022.03 1021.73 1021.44 1021.15 1020.87 1020.56 1020.21 1019.81 1019.36 1018.86 1018.32 1017.75 1017.18
1013.58 1013.97 1014.47 1015.07 1015.77 1016.53 1017.34 1018.16 1018.98 1019.77 1020.51 1021.19 1021.81 1022.37 1022.86 1023.29 1023.66 1023.97 1024.21 1024.39 1024.50 1024.53 1024.49 1024.37 1024.18 1023.93 1023.64 1023.31 1022.99 1022.66 1022.35 1022.06 1021.79 1021.54 1021.29 1021.02 1020.71 1020.36 1019.95 1019.48 1018.96 1018.39 1017.79 1017.20
1015.49 1015.85 1016.32 1016.88 1017.53 1018.24 1019.00 1019.78 1020.54 1021.28 1021.97 1022.60 1023.16 1023.66 1024.07 1024.42 1024.69 1024.89 1025.02 1025.07 1025.04 1024.94 1024.76 1024.53 1024.25 1023.92 1023.58 1023.24 1022.91 1022.59 1022.31 1022.06 1021.82 1021.59 1021.36 1021.09 1020.79 1020.42 1019.99 1019.50 1018.95 1018.36 1017.75 1017.14
1017.51 1017.83 1018.24 1018.74 1019.33 1019.98 1020.67 1021.37 1022.06 1022.72 1023.33 1023.88 1024.36 1024.76 1025.09 1025.33 1025.50 1025.59 1025.60 1025.53 1025.38 1025.17 1024.90 1024.58 1024.23 1023.86 1023.50 1023.14 1022.82 1022.52 1022.26 1022.03 1021.81 1021.59 1021.35 1021.08 1020.75 1020.37 1019.91 1019.40 1018.83 1018.23 1017.61 1016.99
1019.55 1019.82 1020.18 1020.62 1021.13 1021.69 1022.29 1022.89 1023.48 1024.04 1024.55 1024.99 1025.36 1025.65 1025.87 1026.00 1026.06 1026.04 1025.94 1025.78 1025.54 1025.25 1024.91 1024.55 1024.16 1023.77 1023.39 1023.04 1022.73 1022.45 1022.20 1021.97 1021.75 1021.52 1021.27 1020.97 1020.62 1020.20 1019.72 1019.19 1018.61 1018.01 1017.39 1016.78
1021.53 1021.76 1022.07 1022.44 1022.87 1023.34 1023.83 1024.32 1024.79 1025.22 1025.59 1025.90 1026.14 1026.31 1026.41 1026.43 1026.38 1026.27 1026.08 1025.84 1025.55 1025.21 1024.84 1024.45 1024.05 1023.66 1023.29 1022.95 1022.64 1022.36 1022.11 1021.88 1021.64 1021.39 1021.11 1020.77 1020.39 1019.95 1019.45 1018.90 1018.32 1017.72 1017.11 1016.52
1023.37 1023.57 1023.83 1024.15 1024.51 1024.88 1025.26 1025.63 1025.95 1026.24 1026.47 1026.63 1026.73 1026.77 1026.74 1026.66 1026.51 1026.31 1026.07 1025.78 1025.44 1025.08 1024.70 1024.31 1023.91 1023.54 1023.18 1022.84 1022.54 1022.26 1022.00 1021.74 1021.48 1021.20 1020.88 1020.51 1020.10 1019.63 1019.12 1018.56 1017.99 1017.39 1016.80 1016.22
1025.00 1025.20 1025.43 1025.70 1025.98 1026.27 1026.53 1026.76 1026.95 1027.08 1027.16 1027.18 1027.14 1027.05 1026.91 1026.72 1026.49 1026.23 1025.94 1025.61 1025.26 1024.89 1024.51 1024.13 1023.75 1023.39 1023.04 1022.71 1022.40 1022.11 1021.83 1021.55 1021.26 1020.95 1020.59 1020.20 1019.76 1019.28 1018.76 1018.20 1017.63 1017.04 1016.45 1015.86
1026.41 1026.61 1026.82 1027.04 1027.26 1027.45 1027.60 1027.71 1027.76 1027.75 1027.68 1027.55 1027.39 1027.17 1026.93 1026.66 1026.37 1026.06 1025.73 1025.38 1025.02 1024.66 1024.28 1023.91 1023.54 1023.19 1022.84 1022.51 1022.20 1021.90 1021.60 1021.29 1020.97 1020.63 1020.26 1019.85 1019.39 1018.90 1018.38 1017.82 1017.24 1016.64 1016.04 1015.43
1027.61 1027.80 1027.99 1028.17 1028.32 1028.42 1028.46 1028.44 1028.35 1028.21 1028.01 1027.76 1027.48 1027.17 1026.84 1026.50 1026.16 1025.81 1025.45 1025.10 1024.73 1024.37 1024.00 1023.63 1023.27 1022.91 1022.56 1022.23 1021.90 1021.58 1021.26 1020.94 1020.61 1020.25 1019.86 1019.44 1018.99 1018.49 1017.96 1017.39 1016.80 1016.18 1015.54 1014.88
1028.61 1028.80 1028.96 1029.08 1029.15 1029.15 1029.08 1028.94 1028.73 1028.47 1028.15 1027.79 1027.42 1027.03 1026.64 1026.25 1025.87 1025.50 1025.12 1024.76 1024.39 1024.02 1023.64 1023.27 1022.90 1022.53 1022.18 1021.83 1021.49 1021.15 1020.82 1020.49 1020.15 1019.79 1019.39 1018.97 1018.51 1018.01 1017.46 1016.88 1016.25 1015.59 1014.89 1014.15
Thickness
5434 5435 5431 5429 5428 5417 5413 5415 5414 5422 5416 5425 5413 5405 5399 5392 5385 5379 5374 5368 5362 5355 5349 5345 5341 5337 5334 5332 5329 5327 5323 5321 5319 5318 5317 5316 5315 5315 5314 5313 5313 5313 5313 5313
5421 5423 5417 5418 5422 5418 5414 5411 5407 5408 5411 5410 5398 5390 5385 5379 5375 5370 5364 5358 5352 5346 5340 5335 5331 5327 5324 5321 5318 5315 5312 5310 5309 5307 5306 5305 5304 5303 5303 5302 5302 5301 5302 5302
5412 5407 5409 5412 5417 5413 5405 5401 5399 5401 5405 5395 5387 5383 5375 5369 5364 5359 5354 5348 5342 5335 5330 5325 5320 5317 5313 5310 5307 5304 5301 5299 5298 5296 5295 5294 5293 5292 5291 5290 5290 5290 5291 5291
5392 5395 5403 5423 5406 5404 5398 5392 5386 5388 5385 5380 5375 5367 5361 5357 5351 5347 5342 5336 5330 5324 5320 5315 5310 5306 5302 5299 5296 5293 5291 5288 5286 5285 5284 5283 5282 5281 5280 5279 5279 5279 5280 5280
5378 5379 5392 5403 5397 5389 5386 5386 5381 5376 5374 5367 5359 5355 5352 5348 5341 5335 5329 5324 5318 5313 5308 5303 5299 5295 5291 5288 5285 5282 5280 5278 5276 5274 5273 5272 5271 5271 5270 5269 5268 5268 5269 5270
5367 5375 5390 5403 5387 5379 5377 5377 5376 5368 5363 5355 5349 5346 5346 5338 5330 5323 5317 5312 5306 5301 5296 5291 5287 5283 5279 5276 5273 5271 5269 5267 5264 5263 5262 5261 5261 5261 5260 5258 5258 5258 5259 5259
5363 5364 5378 5380 5371 5370 5372 5380 5367 5358 5352 5344 5338 5337 5330 5323 5317 5312 5306 5300 5295 5289 5284 5280 5276 5271 5267 5264 5262 5260 5258 5256 5254 5252 5251 5250 5250 5250 5249 5248 5248 5248 5248 5249
5356 5356 5374 5367 5360 5362 5366 5358 5352 5346 5340 5334 5327 5320 5315 5310 5305 5300 5295 5289 5283 5277 5273 5268 5264 5259 5256 5253 5252 5249 5247 5245 5243 5241 5240 5240 5239 5239 5239 5237 5237 5237 5237 5239
5363 5372 5366 5355 5356 5354 5348 5345 5341 5335 5329 5322 5315 5309 5305 5299 5293 5288 5282 5277 5272 5266 5261 5257 5252 5248 5244 5243 5240 5238 5236 5234 5232 5231 5229 5229 5228 5228 5228 5226 5225 5226 5226 5228
5349 5356 5353 5347 5344 5341 5336 5333 5328 5323 5317 5310 5304 5299 5292 5287 5281 5276 5271 5265 5260 5255 5250 5246 5242 5238 5233 5231 5229 5227 5225 5223 5222 5220 5220 5219 5218 5217 5216 5215 5214 5215 5216 5219
5342 5345 5341 5342 5336 5331 5326 5320 5315 5310 5304 5299 5293 5287 5280 5274 5269 5264 5260 5254 5248 5243 5238 5235 5231 5227 5224 5221 5218 5216 5214 5213 5211 5210 5209 5209 5209 5207 5206 5206 5205 5206 5208 5210
5345 5342 5335 5333 5326 5320 5314 5309 5303 5297 5292 5286 5281 5275 5269 5262 5257 5252 5247 5242 5237 5232 5228 5224 5220 5216 5214 5211 5208 5205 5204 5203 5201 5200 5200 5200 5199 5199 5199 5198 5200 5200 5201 5203
5332 5326 5321 5317 5312 5307 5302 5297 5291 5285 5280 5274 5268 5262 5256 5250 5245 5240 5235 5230 5225 5221 5216 5212 5209 5206 5204 5201 5198 5195 5193 5192 5191 5191 5190 5190 5189 5189 5191 5192 5192 5192 5193 5196
5317 5313 5309 5305 5299 5293 5287 5282 5277 5271 5266 5261 5255 5249 5244 5238 5233 5228 5223 5218 5214 5210 5206 5202 5199 5197 5194 5191 5189 5186 5184 5183 5182 5181 5180 5179 5178 5178 5179 5181 5183 5184 5185 5187
5303 5300 5296 5290 5284 5278 5273 5268 5263 5258 5253 5247 5243 5237 5232 5227 5222 5217 5212 5209 5204 5200 5196 5193 5190 5188 5185 5182 5180 5177 5175 5174 5172 5171 5170 5170 5169 5168 5168 5169 5171 5173 5176 5178
5290 5286 5282 5277 5272 5266 5261 5256 5251 5246 5240 5235 5230 5225 5220 5215 5210 5206 5202 5197 5192 5190 5187 5183 5181 5179 5176 5172 5170 5168 5166 5165 5164 5163 5161 5161 5159 5159 5159 5159 5160 5162 5164 5166
5281 5276 5271 5266 5261 5255 5249 5244 5240 5234 5228 5222 5218 5213 5209 5204 5200 5196 5192 5187 5183 5179 5177 5174 5172 5170 5166 5163 5161 5159 5157 5156 5156 5154 5152 5151 5150 5149 5149 5149 5150 5152 5154 5156
5272 5268 5263 5257 5251 5244 5239 5233 5227 5222 5217 5212 5207 5201 5197 5193 5189 5186 5182 5177 5174 5171 5169 5167 5164 5162 5158 5155 5153 5150 5149 5147 5146 5144 5143 5142 5141 5141 5140 5140 5141 5143 5145 5148
5260 5256 5251 5246 5240 5234 5228 5222 5216 5211 5206 5201 5196 5191 5186 5182 5179 5175 5172 5168 5164 5162 5161 5158 5157 5154 5150 5147 5145 5143 5140 5139 5137 5136 5134 5134 5133 5131 5131 5131 5132 5133 5136 5139
5248 5243 5239 5234 5229 5223 5217 5211 5205 5200 5195 5190 5186 5181 5178 5174 5170 5166 5163 5159 5157 5154 5153 5150 5148 5145 5143 5140 5138 5135 5132 5130 5128 5126 5125 5124 5123 5123 5123 5123 5124 5126 5128 5131
5235 5231 5226 5221 5216 5211 5206 5201 5195 5190 5186 5181 5177 5173 5170 5166 5162 5158 5155 5153 5152 5148 5146 5144 5140 5137 5135 5133 5131 5128 5124 5122 5120 5118 5117 5116 5115 5115 5115 5115 5116 5118 5121 5123
5222 5218 5214 5209 5204 5200 5195 5191 5186 5182 5177 5173 5169 5166 5162 5159 5155 5152 5149 5145 5144 5141 5139 5136 5132 5131 5129 5128 5124 5120 5117 5114 5112 5110 5109 5108 5107 5107 5108 5109 5109 5111 5113 5116
5212 5208 5203 5198 5194 5190 5186 5182 5177 5174 5169 5165 5162 5158 5154 5150 5147 5143 5142 5139 5136 5134 5131 5128 5126 5125 5124 5119 5115 5112 5109 5107 5105 5103 5102 5101 5101 5101 5101 5102 5103 5104 5107 5110
5201 5197 5192 5188 5184 5180 5177 5173 5170 5166 5162 5158 5155 5152 5147 5144 5141 5137 5134 5132 5129 5127 5123 5121 5119 5118 5115 5110 5106 5104 5102 5100 5099 5097 5096 5096 5095 5095 5095 5095 5097 5099 5101 5104
5191 5186 5182 5178 5175 5173 5169 5166 5161 5158 5155 5152 5149 5145 5141 5138 5134 5131 5127 5124 5122 5120 5116 5113 5111 5109 5105 5102 5099 5097 5096 5094 5093 5092 5091 5090 5089 5089 5089 5090 5092 5094 5097 5100
5180 5176 5173 5170 5166 5164 5161 5157 5154 5151 5148 5145 5142 5139 5135 5131 5128 5125 5121 5118 5115 5113 5110 5106 5103 5101 5098 5096 5094 5092 5091 5090 5088 5086 5085 5084 5084 5084 5085 5086 5088 5090 5094 5097
5170 5166 5164 5161 5159 5156 5153 5149 5146 5143 5140 5137 5134 5132 5128 5125 5121 5118 5115 5112 5109 5106 5103 5101 5098 5095 5093 5091 5089 5088 5086 5085 5084 5082 5081 5080 5080 5080 5081 5082 5084 5087 5091 5094